Location: Bacharowice
(49.9333°N, 19.5833°E)
Time: 23:43:04
(UTC+00:00)

Cosmos 1470 Rocket - Pass Details

Date: 11 May 2021
Orbit: 603 x 634 km, 82.5° (Epoch: 21 June)

Event Time Altitude Azimuth Distance (km) Brightness Sun altitude
Rises 19:07:05 0° 354° (N) 2,940 7.8 -7.6°
Reaches altitude 10° 19:09:25 10° 1° (N) 2,029 6.8 -7.9°
Maximum altitude 19:13:44 44° 74° (ENE) 887 4.1 -8.4°
Enters shadow 19:17:52 11° 146° (SSE) 1,960 5.5 -8.9°
